Погода в Матвееве

Россия / Костромская область     58°38′31″N   43°29′03″E
темп.,
°C
ветер,
м/с
пор.,
м/с
влажн.,
%
обл.,
%
осадки,
мм/ч
давл.,
гПа
погр.,
м
16 июня, ср
ср1600:00+16юз119422 1.3 100919
03:00+14юз11952 1.4 100911
06:00+16з239317 0.4 1008141
09:00+19зсз35855 3.7 1008462
12:00+22сз4549100 0.8 10091428
15:00+22сз57401 0.8 10101982
18:00+20сз57420 0.0 10111720
21:00+13зсз26681 0.0 1013108
17 июня, чт
чт1700:00+11зсз3768100 0.0 1015120
03:00+9зсз38765 0.0 1016158
06:00+12сз48600 0.0 1018306
09:00+17сз59430 0.0 10191555
12:00+19сз693680 0.0 10192489
15:00+19ссз5103767 0.0 10202658
18:00+18сз48473 0.0 10211904
21:00+12ссз12755 0.0 102314
18 июня, пт
пт1800:00+10ссв11730 0.0 102510
03:00+8ссв117235 0.0 102710
06:00+13юз115891 0.0 102784
09:00+19зюз233838 0.0 1026927
12:00+22з3533100 0.0 10251367
15:00+24зюз463774 0.0 10241629
18:00+23зюз375144 0.0 1022842
21:00+16зюз368184 0.0 1022105
19 июня, сб
сб1900:00+15зюз39905 0.0 1023150
03:00+15зюз3129025 0.0 1023248
06:00+18з39765 0.0 1022255
09:00+24з48515 0.0 1022973
12:00+27з57370 0.0 10211886
15:00+28з57370 0.0 10202027
18:00+27з47490 0.0 10201140
21:00+20зюз312760 0.0 1021275
20 июня, вс
вс2000:00+18зюз311820 0.0 1022211
03:00+16зюз29910 0.0 1022167
06:00+20з36770 0.0 1023212
09:00+26з36522 0.0 1022777
12:00+29зюз46415 0.0 10211936
15:00+29зюз563977 0.0 10202267
18:00+28зюз475166 0.0 10191117
21:00+22зюз4117466 0.0 1020405